Regional Weather Roundup
Issued by NWS Goodland, KS

Home | Current Version | Previous Version | Text Only | Print | Product List | Glossary Off
Versions: 1 2 3 4 5 6 7 8 9 10 11 12 13 14 15 16 17 18 19 20 21 22 23 24 25 26 27 28 29 30 31 32 33 34 35 36 37 38 39 40 41 42 43 44 45 46 47 48 49 50

000
ASUS43 KGLD 060408
RWRGLD

GOODLAND FORECAST AREA HOURLY WEATHER ROUNDUP
NATIONAL WEATHER SERVICE GOODLAND KS
900 PM MST FRI FEB 05 2016

...OFFICIAL OBSERVATIONS...

CITY           SKY/WX    TMP DP  RH WIND       PRES   REMARKS
GOODLAND KS    CLEAR     19  13  77 NW9       30.28S
HILL CITY KS   CLEAR     28  21  75 NW9       30.29R
IMPERIAL NEB   CLEAR     25  15  66 NW16      30.26F WCI  12
MCCOOK NEB     CLEAR     23  18  81 W12       30.28R WCI  12
AKRON CO       CLOUDY    20  11  68 W12       30.27S WCI   8
BURLINGTON CO  CLEAR     15   7  70 W13       30.29R WCI   1
LIMON CO       CLOUDY    12   4  70 NW6       30.31R
$$

...UNOFFICIAL OBSERVATIONS...

CITY           SKY/WX    TMP DP  RH WIND       PRES   REMARKS
COLBY KS       CLEAR     18  16  93 W10       30.29S WCI   6
GOVE KS          N/A     23  32 100 MISG        N/A
LENORA KS        N/A     26  32 100 MISG        N/A
NORTON KS      CLEAR     25  18  74 W10       30.27  WCI  15
SHARON SPRINGS   N/A     18  13  81 W7          N/A
KIT CARSON CO    N/A     16   9  74 MISG        N/A
YUMA CO          N/A     15  10  80 NW7         N/A
$$



USA.gov is the U.S. government's official web portal to all federal, state and local government web resources and services.